COSMOS 1124 DEB, 32982

Orbit data source: Space-Track

COSMOS 1124 DEB, 32982 is space debris in HEO originally from a launch on Tue, 28 Aug 1979 UTC launched from the Plesetsk Missile And Space Complex (PKMTR). Debris objects in space refer to the collection of defunct objects orbiting the Earth. Examples of debris include non-operational satellites, rocket bodies, and fragments generated from explosions, collisions, or faulty payload assembly.

Loading next visibility...
Identifier
32982, 1979-077H
Orbit
HEO
Country
Flag of CISCIS
Related business
Manufacturer
Unknown
Mission
Spacecraft
Bus & Motor
Unknown
Mass
Unknown
Launch date (UTC)
1979-08-28 (47 years ago)
Launch vehicle
Unknown
Launch site
Plesetsk Missile And Space Complex (PKMTR)
Object type
Payload
Rocket body
Debris
Shape & HBR
Unknown shape, 0.5 m
Radar Cross Section
Medium (>0.1 m² and <1 m²)

Expand to show TLE details & history
Last TLE update: 3 days ago

TLE from 3 days ago
0 COSMOS 1124 DEB
1 32982U 79077H   26170.58067610 -.00000315  00000-0  00000-0 0  9993
2 32982  65.4410 178.7165 6703723 329.9789   4.5483  2.09826826220962
Epoch: 2026-06-19T13:56Z
TLE epoch observation values (Epoch: 2026-06-19T13:56:10.415Z)
Latitude
-0.00107°
Longitude
61.90217°
Altitude
2,607.321 km
Speed
8.56 km/s
True Right ascension
11h 55m 00s
True Declination
0° 00' 04"
Sunlit
Object was in daylight at epoch
Visualization orbit readout
Latitude
Unknown
Longitude
Unknown
Altitude
Unknown
Speed
Unknown
Apparent Right ascension
Unknown
Apparent Declination
Unknown
Sunlit
N/A
Visualization observer readout
Local Sidereal Time
23:08:01
Azimuth
Unknown
Elevation
Unknown
Doppler factor
Unknown
Orbital elements
Apogee altitude
36,670.335 km
Perigee altitude
2,116.956 km
Semi-major axis
25,771.782 km
Eccentricity
0.67037
Inclination
65.441°
RAAN
178.7165°
Arg. of periapsis
329.9789°
True anomaly
29.92877°
Mean anomaly
4.5483°
Eccentric anomaly
13.54256°
Mean motion
0.5246 °/min
Orbital period
686.24 mins
BSTAR
0
Loading maneuver chart data...
Computing Atmospheric mass density...
Loading historical data...
Loading historical data...
Loading historical data...
Loading historical data...
Loading historical data...
Loading historical data...
Loading historical data...

Documentation

Showing up to 5 results
|